Вернуться в каталог

STARLINK-34272

АктивенСвязьVLEO
NORAD 64274·PAYLOAD·🇺🇸 United States

Запущен Jun 4, 2025 с Vandenberg Space Force Base

Loading…

Ближайшие Пролёты (ближайшие 24 часа)

TLE

СвежийSource: CelesTrak SupGP

Эпоха: Sep 15, 2026, 03:26 UTC

1 64274C 25120U   26258.14354167  .00037544  00000+0  11088-2 0  2587
2 64274  53.1592 314.4415 0001285  88.8740 292.2421 15.34384110    16

Отслеживайте STARLINK-34272 в реальном времени с AllMySat

Download on the App Store